Terminal Aerodrome Forecast
Issued by NWS Green Bay, WI

Home | Current Version | Previous Version | Graphics & Text | Print | Product List | Glossary On
Versions: 1 2 3 4 5 6 7 8 9 10 11 12 13 14 15 16 17 18 19 20 21 22 23 24 25 26 27 28 29 30 31 32 33 34 35 36 37 38 39 40 41 42
000
FTUS43 KGRB 210500
TAFGRB
TAF
KGRB 210520Z 2106/2206 VRB03KT 4SM BR OVC030
     FM210800 VRB03KT 4SM -FZDZ BR OVC020
     FM211200 15004KT 4SM -FZDZ BR OVC012
     FM211700 16008KT 6SM -DZ BR OVC015
     FM220300 15011KT 5SM -DZSN BR OVC012=

USA.gov is the U.S. government's official web portal to all federal, state and local government web resources and services.